CAPE
488 531 717 1287 2074 2244 2195 2107 1919 1882 2356 2568 2655 2424 2130 1877 1599 1053 743 347 92 86 129 69 46 1055 1112 985 1430 1412 1337 1468 1469
512 504 717 1088 1559 1935 2122 2289 2346 2495 2689 2601 2214 1892 1242 610 264 106 207 119 79 30 77 352 696 674 908 1375 1432 1553 1682 1539 1657
771 768 816 960 1337 1609 1788 1943 2162 2295 2391 2329 1739 1094 705 515 124 6 22 92 68 55 271 690 976 1309 1370 1125 1373 1564 1447 1415 1599
872 875 927 1048 1373 1586 1742 1778 1697 1697 1638 1660 1699 1225 830 557 223 89 16 0 85 170 286 611 927 1367 1587 1454 1402 1388 1471 1374 1320
984 1097 1206 1255 1406 1589 1821 2000 1943 1941 1833 1636 1674 1415 1165 541 208 70 32 24 75 215 123 529 1184 1381 1439 1411 1157 1251 1600 1198 1196
1511 1421 1374 1569 1942 2117 2229 2514 2575 2374 2151 2002 1871 1811 1663 1229 660 68 42 296 485 771 601 912 1807 1430 1409 1476 1145 912 1103 1443 1070
1409 1738 2246 2365 2346 2617 2668 2777 2825 2718 2733 2918 2786 2588 2287 1919 1688 1214 1043 940 767 774 878 1055 720 1352 1598 1257 274 1007 1162 1346 1484
1652 1645 1873 1983 2106 2251 2336 2195 1888 1782 2017 2487 2681 2502 2495 2175 1840 2062 1882 1765 1729 1858 1937 1801 1872 1696 1505 963 562 210 582 1402 962
1746 1685 1703 1831 1851 1675 1399 1065 629 637 757 772 793 829 804 826 809 749 780 942 943 1225 1758 1820 1686 1700 1560 1354 1013 901 790 644 503
1586 1448 1548 1520 1451 1322 937 633 489 446 442 403 400 383 370 331 332 368 427 541 788 828 781 1065 1070 1178 1214 1092 1066 996 745 782 759
1426 1296 1175 1219 1264 997 759 554 397 386 447 548 454 385 308 220 203 195 208 262 176 107 312 543 689 621 577 661 827 633 486 372 557
1179 1171 1103 1013 830 447 331 271 392 424 394 442 519 414 454 392 295 295 276 274 363 407 303 295 254 209 421 552 666 415 257 111 114
1106 938 713 510 267 205 296 444 425 477 494 511 674 637 300 208 370 295 316 334 301 170 322 355 246 77 72 138 145 229 280 127 208
912 693 605 543 454 319 99 343 253 148 27 15 335 418 332 301 387 406 302 192 225 210 253 374 508 444 418 431 328 299 138 42 111
725 723 279 53 10 19 38 18 34 120 309 608 600 418 358 376 408 367 192 352 461 486 407 259 264 179 216 294 369 283 183 72 43
183 1 1 6 15 0 0 86 294 355 333 326 330 305 192 118 89 52 40 55 33 42 114 225 253 211 256 124 0 0 1 1 45
0 0 1 0 0 10 51 49 124 241 240 211 161 132 83 41 17 8 0 0 0 0 0 0 1 5 13 10 0 0 4 64 109
0 0 0 18 13 12 31 62 164 86 77 81 94 43 26 24 16 13 13 4 0 0 1 8 7 0 0 0 0 0 0 0 0
5 38 42 40 34 37 119 51 32 26 47 61 39 32 15 12 8 11 13 1 2 1 3 1 0 0 1 3 0 0 0 0 0
19 63 86 96 98 76 91 60 58 87 38 17 25 37 19 3 0 0 1 11 10 8 0 0 0 0 0 0 0 0 0 0 0
CIN
-65 -58 -69 -62 -64 -74 -65 -66 -54 -33 -23 -9 -2 -5 -25 -26 -9 -5 -8 -51 -117 -69 -55 -95 -85 -11 -15 -48 -13 -18 -12 -10 -11
-66 -55 -48 -61 -62 -62 -57 -45 -29 -19 -16 -13 -15 -12 -55 -92 -111 -17 -8 -16 -50 -104 -78 -27 -9 -37 -5 -11 -14 -7 -3 -6 -2
-18 -31 -34 -46 -56 -68 -55 -44 -37 -19 -15 -15 -36 -81 -92 -105 -141 -26 -13 -4 -18 -19 -47 -40 -7 -2 -11 -32 -12 -4 -9 -12 -1
-3 -5 -14 -38 -40 -55 -52 -58 -62 -66 -65 -44 -37 -61 -76 -79 -117 -70 -56 -30 -38 -47 -54 -37 -7 -7 -6 -14 -8 -4 -8 -19 -10
-4 -5 -7 -25 -23 -34 -37 -40 -49 -42 -44 -29 -6 -28 -56 -93 -128 -149 -179 -185 -150 -32 -55 -19 -3 -5 -12 -15 -18 -13 -3 -19 -16
-22 -15 -7 -7 -6 -2 -6 -14 -18 -16 -20 -9 -10 -2 -7 -38 -79 -178 -189 -80 -35 -9 -27 -20 -3 -19 -19 -20 -25 -15 -18 -10 -17
-2 -3 -10 -7 -7 -4 -3 -5 -3 -2 -2 -2 -2 -3 -2 -4 -18 -36 -43 -39 -46 -38 -41 -47 -63 -31 -12 -19 -116 -52 -28 -10 -5
-3 -2 -7 -10 -3 -2 -5 -22 -44 -49 -30 -7 -3 -4 -4 -5 -10 -6 -10 -16 -17 -15 -9 -12 -5 -12 -26 -44 -68 -100 -48 -3 -12
-6 -7 -3 -12 -6 -5 -25 -62 -100 -107 -80 -74 -63 -52 -51 -35 -33 -40 -42 -33 -36 -21 -5 -6 -6 -7 -7 -20 -43 -48 -37 -23 -10
-11 -19 -9 -5 -1 -9 -40 -69 -76 -102 -95 -85 -63 -48 -29 -27 -23 -11 -14 -27 -16 -22 -38 -21 -24 -18 -13 -20 -17 -19 -36 -26 -28
-9 -12 -8 -1 -2 -2 -8 -5 -18 -42 -25 -26 -48 -47 -51 -48 -46 -47 -42 -32 -38 -70 -35 -18 -11 -22 -25 -21 -14 -29 -58 -76 -48
-6 -6 -5 -4 -2 -2 -14 -21 -13 -10 -34 -40 -47 -58 -23 -35 -26 -15 -21 -21 -10 -10 -23 -19 -26 -33 -11 -8 -9 -44 -84 -125 -119
-2 -2 -2 -3 -13 -3 -5 -14 -13 -11 -13 -23 -19 -19 -51 -70 -34 -32 -14 -9 -10 -39 -11 -13 -29 -90 -107 -70 -88 -57 -71 -120 -72
-3 -2 -2 -3 -3 -3 -26 -14 -29 -59 -68 -30 -43 -29 -60 -38 -17 -14 -27 -38 -17 -29 -16 -6 -1 -3 -7 -19 -34 -55 -127 -200 -102
-7 -6 -14 -38 -65 -71 -73 -74 -88 -99 -34 -8 -24 -46 -36 -32 -23 -12 -23 -8 -5 -3 -5 -16 -17 -52 -55 -35 -20 -39 -101 -189 -192
-41 -8 -7 -75 -73 -1 0 -45 -35 -37 -55 -27 -51 -50 -91 -124 -136 -135 -153 -138 -148 -125 -53 -22 -18 -20 -9 -76 -1 0 -6 -37 -221
0 0 -17 0 -10 -63 -55 -59 -49 -44 -68 -86 -107 -101 -119 -167 -1 -2 0 0 0 0 0 -1 -39 -32 -25 -37 0 0 -17 -210 -186
0 0 0 -95 -61 -48 -46 -77 -33 -82 -96 -110 -105 -134 -3 -2 -2 -2 -3 -3 0 0 -1 -1 -3 0 0 0 0 0 0 0 0
-28 -63 -56 -77 -56 -31 -31 -57 -31 -7 -15 -57 -2 -2 -2 -1 -3 -1 -2 -1 -1 -2 -9 -5 -6 -2 -3 -10 0 0 0 0 0
-51 -54 -28 -25 -33 -36 -26 -23 -56 -46 -10 -14 -9 -2 -2 -2 0 -1 -2 -2 -2 -2 0 0 0 0 -15 0 -2 0 0 0 0
Wind_Speed
18 19 20 21 21 20 19 18 16 15 14 10 9 9 8 8 13 14 13 15 18 14 29 29 32 23 5 8 7 3 3 2 3
17 18 20 20 20 19 19 18 17 16 15 14 13 13 19 22 24 16 8 10 23 23 30 35 1 18 31 15 13 10 2 2 1
16 16 19 20 20 19 18 18 18 18 18 16 17 19 22 28 30 32 14 13 16 24 27 29 28 21 21 22 22 16 10 4 3
14 15 17 18 18 18 18 19 18 18 17 18 17 18 22 25 27 27 25 15 9 20 23 28 29 28 27 26 25 17 12 8 4
15 15 16 17 17 17 18 18 18 18 19 20 18 19 19 20 21 20 21 17 12 20 23 25 26 28 28 30 27 21 21 19 13
14 14 14 13 17 17 18 18 19 19 19 21 21 18 15 14 14 11 9 9 8 7 20 24 27 27 28 29 30 30 28 23 17
12 12 16 16 18 18 18 19 19 20 21 23 22 22 20 19 12 10 7 5 4 5 13 21 27 29 28 25 27 26 27 25 25
12 13 13 13 15 16 17 18 19 21 22 23 22 22 22 23 21 17 13 8 4 6 3 11 10 1 2 1 18 27 30 30 31
10 11 12 14 15 14 16 17 18 20 22 23 24 24 24 24 24 25 24 24 26 27 26 26 19 10 1 11 8 19 30 31 31
8 10 10 12 11 13 15 15 16 18 21 22 25 25 25 25 26 26 28 28 28 28 28 28 28 29 30 31 31 32 32 30 28
8 9 11 12 11 11 11 13 15 19 18 18 19 20 18 18 22 26 29 30 30 30 30 29 28 29 29 28 28 26 25 26 29
6 8 10 11 12 12 15 17 16 15 18 20 19 19 19 20 20 22 25 29 29 28 28 30 30 28 26 27 28 21 23 23 23
9 11 11 13 15 14 13 10 16 14 18 21 21 21 24 25 24 22 24 28 29 29 29 29 29 30 31 31 30 23 17 15 18
10 12 15 17 18 20 23 21 23 25 29 30 25 27 27 26 24 24 22 17 22 26 26 26 28 31 32 31 27 22 13 12 16
14 17 17 19 21 23 26 27 26 24 28 29 29 30 29 29 29 27 27 30 31 30 30 33 32 31 28 23 16 13 12 11 12
18 19 22 23 26 26 26 28 23 25 26 29 28 28 30 31 31 30 28 27 27 26 25 22 23 23 23 26 29 28 28 15 11
24 24 25 28 30 29 29 29 29 27 26 26 28 30 32 32 32 32 30 26 27 26 27 28 28 29 29 29 30 31 30 23 18
25 26 27 26 29 31 31 31 30 31 32 33 33 33 33 32 31 30 32 32 33 33 32 29 30 30 31 34 36 32 30 28 26
26 26 27 28 29 30 30 32 33 34 32 32 32 33 34 35 37 36 35 38 39 36 37 36 34 34 31 29 29 27 26 25 29
27 28 29 31 32 33 34 35 36 35 34 36 38 35 34 37 40 39 40 38 39 40 39 40 39 34 31 31 30 31 32 32 29
Wind_Direction
64 57 56 54 58 66 74 78 80 71 61 71 64 48 27 357 330 310 287 265 262 270 270 281 266 279 297 318 334 339 334 320 319
47 54 57 59 60 61 62 63 66 57 54 55 54 43 20 12 1 345 309 286 274 283 254 260 82 284 245 309 317 321 322 327 278
41 55 51 51 51 55 60 57 53 53 43 52 42 29 24 20 27 32 1 328 294 271 260 270 274 289 296 299 299 314 316 314 196
55 56 52 49 51 53 50 46 47 43 39 35 38 36 29 31 41 53 53 19 315 249 249 268 275 276 284 287 293 312 317 309 270
35 42 44 45 49 46 45 42 40 39 33 26 32 33 36 40 53 70 71 99 352 247 250 256 260 275 287 282 293 306 302 307 310
15 24 42 48 41 33 34 33 29 26 27 20 18 32 41 48 51 71 104 103 129 44 326 301 287 291 294 293 292 295 293 304 311
25 30 25 33 25 24 23 31 27 23 19 11 12 13 19 20 43 55 72 142 150 178 219 248 270 294 301 320 303 306 304 304 305
8 10 12 28 26 24 24 27 23 20 18 18 18 18 15 8 9 14 28 52 174 200 112 216 210 91 215 139 257 300 300 298 292
10 16 21 14 17 23 19 25 20 14 11 11 9 7 5 4 359 354 356 351 339 328 327 318 343 360 234 220 206 234 276 288 286
6 4 13 12 21 15 11 12 13 8 5 4 0 1 2 359 352 346 338 332 329 329 324 321 316 308 299 292 283 281 297 305 311
5 10 5 8 10 19 18 15 12 353 359 3 3 6 12 12 4 350 339 332 326 321 321 322 320 317 311 312 312 313 317 318 311
6 14 4 6 5 5 358 353 352 353 353 356 355 360 1 359 0 357 348 338 332 333 329 322 319 320 323 319 314 323 321 322 323
9 4 9 2 357 358 357 356 352 347 343 344 345 347 347 347 348 349 346 336 331 329 327 324 321 316 316 315 313 319 320 321 321
11 7 359 350 344 344 342 342 336 330 328 328 338 336 336 341 344 343 343 343 338 331 328 326 321 316 315 315 318 319 317 311 316
349 346 349 346 342 338 335 336 334 330 325 329 328 328 330 333 334 335 335 330 327 324 322 316 315 315 318 322 323 314 310 296 296
352 348 338 337 335 335 336 332 337 327 326 326 326 326 326 326 328 328 329 328 327 326 325 322 320 319 319 319 318 319 318 312 291
340 336 333 331 330 330 330 330 328 331 330 328 327 325 325 325 325 325 326 327 325 324 323 320 318 314 314 315 316 317 322 328 320
332 330 331 332 331 330 327 327 328 327 325 324 322 321 322 322 324 324 323 322 318 316 316 317 314 313 310 307 306 309 309 308 309
333 333 330 329 330 330 328 327 324 323 323 322 322 320 319 319 318 319 320 317 314 315 313 313 314 310 307 307 307 307 306 303 304
336 335 335 331 329 327 325 324 323 324 322 320 318 317 318 317 315 314 314 314 314 312 312 312 311 312 312 312 310 310 306 302 302